Whyalla, South Australia

3:47 AM ACDT on October 02, 2016 (GMT +1030)
Whyalla

Weather History for 94664 - March, 2013

Change the Weather History Date:

Sunday, March 3, 2013

  Actual Average Record
Temperature  
Mean Temperature 73 °F -  
Max Temperature 87 °F - - ()
Min Temperature 59 °F - - ()
Cooling Degree Days 8    
Growing Degree Days 23 (Base 50)    
Moisture  
Dew Point 56 °F    
Average Humidity 50    
Maximum Humidity 72    
Minimum Humidity 31    
Precipitation  
Precipitation 0.00 in - - ()
Sea Level Pressure  
Sea Level Pressure 29.88 in    
Wind  
Wind Speed 7 mph ()    
Max Wind Speed 12 mph    
Max Gust Speed -    
Visibility 6.2 miles    
Events      
T = Trace of Precipitation, MM = Missing Value Source: Averaged Metar Reports

Daily Weather History Graph

Daily Weather History Graph

Search for Another Location

Airport or City:

Trip Planner

Search our weather history database for the weather conditions in past years. The results will help you decide how hot, cold, wet, or windy it might be!

Date:

Astronomy

Mar. 03, 2013 Rise Set
Actual Time 7:09 AM ACDT 7:53 PM ACDT
Civil Twilight 6:44 AM ACDT 8:18 PM ACDT
Nautical Twilight 6:15 AM ACDT 8:47 PM ACDT
Astronomical Twilight 5:44 AM ACDT 9:18 PM ACDT
Moon 11:16 PM ACDT (3/3) 12:27 PM ACDT (3/3)
Length of Visible Light 13h 33m
Length of Day
12h 43m
Waning Gibbous, 70% of the Moon is Illuminated
Mar 3
Waning Gibbous
Mar 5
Last Quarter
Mar 12
New
Mar 20
First Quarter
Mar 27
Full

Hourly Weather History & Observations

Time (ACDT) Temp. Heat Index Dew Point Humidity Pressure Visibility Wind Dir Wind Speed Gust Speed Precip Events Conditions
12:30 AM 73.4 °F - 57.2 °F 57% 29.92 in 6.2 mi East 10.4 mph - N/A   Unknown
1:30 AM 71.6 °F - 57.2 °F 60% 29.92 in 6.2 mi ESE 6.9 mph - N/A   Unknown
2:30 AM 73.4 °F - 53.6 °F 50% 29.89 in 6.2 mi East 9.2 mph - N/A   Unknown
3:30 AM 69.8 °F - 51.8 °F 53% 29.89 in 6.2 mi NE 5.8 mph - N/A   Unknown
4:30 AM 69.8 °F - 50.0 °F 49% 29.89 in 6.2 mi North 4.6 mph - N/A   Unknown
5:30 AM 60.8 °F - 50.0 °F 68% 29.89 in 6.2 mi West 2.3 mph - N/A   Unknown
6:30 AM 59.0 °F - 50.0 °F 72% 29.92 in 6.2 mi NW 3.5 mph - N/A   Unknown
7:30 AM 59.0 °F - 50.0 °F 72% 29.92 in 6.2 mi NW 4.6 mph - N/A   Unknown
8:30 AM 68.0 °F - 51.8 °F 56% 29.95 in 6.2 mi NW 3.5 mph - N/A   Unknown
9:30 AM 77.0 °F - 51.8 °F 41% 29.95 in 6.2 mi North 3.5 mph - N/A   Unknown
10:30 AM 80.6 °F 80.3 °F 53.6 °F 39% 29.95 in 6.2 mi NE 8.1 mph - N/A   Unknown
11:30 AM 80.6 °F 80.3 °F 53.6 °F 39% 29.95 in 6.2 mi East 9.2 mph - N/A   Unknown
12:30 PM 82.4 °F 82.0 °F 57.2 °F 42% 29.92 in 6.2 mi East 10.4 mph - N/A   Unknown
1:30 PM 86.0 °F 84.9 °F 57.2 °F 37% 29.89 in 6.2 mi ESE 10.4 mph - N/A   Unknown
2:30 PM 84.2 °F 82.8 °F 53.6 °F 35% 29.86 in 6.2 mi ESE 10.4 mph - N/A   Unknown
3:30 PM 87.8 °F 85.7 °F 53.6 °F 31% 29.83 in 6.2 mi East 9.2 mph - N/A   Unknown
4:30 PM 86.0 °F 86.1 °F 60.8 °F 43% 29.80 in 6.2 mi SSE 11.5 mph - N/A   Unknown
5:30 PM 86.0 °F 84.5 °F 55.4 °F 35% 29.80 in 6.2 mi South 11.5 mph - N/A   Unknown
6:30 PM 86.0 °F 84.5 °F 55.4 °F 35% 29.80 in 6.2 mi South 10.4 mph - N/A   Unknown
7:30 PM 80.6 °F 81.1 °F 59.0 °F 48% 29.80 in 6.2 mi South 9.2 mph - N/A   Unknown
8:30 PM 77.0 °F - 66.2 °F 69% 29.83 in 6.2 mi SSE 11.5 mph - N/A   Unknown
9:30 PM 77.0 °F - 64.4 °F 65% 29.83 in 6.2 mi SSE 6.9 mph - N/A   Unknown
10:30 PM 78.8 °F - 62.6 °F 57% 29.86 in 6.2 mi ENE 9.2 mph - N/A   Unknown
11:30 PM 78.8 °F - 60.8 °F 54% 29.86 in 6.2 mi ENE 9.2 mph - N/A   Scattered Clouds